EW3730 Weather Reports


time (UTC)temp
C
wind
direction
speed
KPH
gust
KPH
rain 1hr
cm
rain 24hr
cm
rain mn
cm
humidity
%
barometer
mb
20260508204324 13 306 0.0 4.8 0.10 0.20 0.18 57 1010.6
20260508203824 13 307 0.0 0.0 0.08 0.18 0.15 57 1010.6
20260508203318 13 307 0.0 3.2 0.08 0.18 0.15 57 1010.8
20260508203042 13 307 0.0 4.8 0.05 0.15 0.13 57 1011.0
20260508202307 13 307 0.0 4.8 0.03 0.13 0.10 56 1011.0
20260508201759 13 307 1.6 6.4 0.03 0.13 0.10 56 1010.7
20260508201254 14 332 3.2 8.0 0.00 0.10 0.08 54 1010.5
20260508200754 14 304 4.8 8.0 0.00 0.10 0.08 54 1010.6
20260508200254 15 342 3.2 6.4 0.00 0.10 0.08 53 1010.4
20260508195754 15 337 3.2 6.4 0.00 0.10 0.08 52 1010.3
20260508195254 15 327 3.2 6.4 0.00 0.10 0.08 50 1010.2
20260508195024 15 327 1.6 6.4 0.00 0.10 0.08 48 1010.1
20260508194256 16 38 1.6 4.8 0.00 0.10 0.08 48 1010.1
20260508193754 16 34 1.6 4.8 0.00 0.10 0.08 47 1010.1
20260508193254 16 48 1.6 4.8 0.00 0.10 0.08 45 1010.1
20260508192753 16 341 3.2 6.4 0.00 0.10 0.08 44 1010.3
20260508192254 16 341 3.2 6.4 0.00 0.10 0.08 44 1010.2
20260508192024 16 88 1.6 6.4 0.00 0.10 0.08 48 1010.4
20260508191528 15 81 1.6 6.4 0.00 0.10 0.08 47 1010.7
20260508191254 16 86 1.6 6.4 0.00 0.10 0.08 47 1010.6
20260508190253 15 53 1.6 4.8 0.00 0.10 0.08 49 1010.9
20260508185754 15 44 1.6 3.2 0.00 0.10 0.08 48 1011.0
20260508185252 15 49 0.0 4.8 0.00 0.10 0.08 49 1011.0
20260508184752 15 49 1.6 6.4 0.00 0.10 0.08 49 1011.2
20260508184252 15 325 3.2 12.9 0.00 0.10 0.08 47 1011.1
20260508183751 15 329 4.8 12.9 0.00 0.10 0.08 47 1011.3
20260508183252 15 329 4.8 9.7 0.00 0.10 0.08 46 1011.2
20260508182751 16 329 4.8 9.7 0.00 0.10 0.08 45 1011.2
20260508182252 15 315 4.8 8.0 0.00 0.10 0.08 45 1011.4
20260508181752 15 306 4.8 8.0 0.00 0.10 0.08 45 1011.4
20260508181523 15 282 3.2 8.0 0.00 0.10 0.08 45 1011.6
20260508181023 15 336 3.2 8.0 0.00 0.10 0.08 46 1011.6
20260508180252 15 294 3.2 8.0 0.00 0.10 0.08 45 1011.7
20260508175752 15 320 3.2 8.0 0.00 0.10 0.08 46 1011.8
20260508175521 15 295 3.2 6.4 0.00 0.10 0.08 46 1012.0
20260508175021 15 222 3.2 9.7 0.00 0.10 0.08 46 1011.9
20260508174250 15 247 4.8 11.3 0.00 0.10 0.08 46 1011.9
20260508173749 15 210 6.4 14.5 0.00 0.10 0.08 45 1012.1
20260508173250 15 250 6.4 14.5 0.00 0.10 0.08 45 1012.0
20260508172750 15 248 6.4 14.5 0.00 0.10 0.08 44 1012.1
20260508172250 15 228 4.8 19.3 0.00 0.10 0.08 45 1012.1
20260508171750 15 277 4.8 19.3 0.00 0.10 0.08 45 1012.0
20260508171249 15 205 3.2 14.5 0.00 0.10 0.08 46 1012.1
20260508170749 14 241 4.8 16.1 0.00 0.10 0.08 48 1012.3
20260508170745 15 238 4.8 12.9 0.00 0.10 0.08 48 1012.1
20260508165746 13 174 4.8 16.1 0.00 0.10 0.08 48 1012.4
20260508165250 13 239 3.2 11.3 0.00 0.10 0.08 51 1012.9
20260508165246 13 248 3.2 12.9 0.00 0.10 0.08 50 1012.6
20260508164516 12 259 3.2 12.9 0.00 0.10 0.08 51 1013.0
20260508163745 12 249 4.8 12.9 0.03 0.10 0.08 52 1013.3
20260508163246 12 257 3.2 12.9 0.03 0.10 0.08 52 1013.4
20260508163017 11 222 1.6 9.7 0.03 0.10 0.08 54 1013.6
20260508162242 11 239 1.6 9.7 0.03 0.10 0.08 56 1013.6
20260508161742 11 234 1.6 9.7 0.03 0.10 0.08 55 1013.7
20260508161241 11 244 1.6 4.8 0.05 0.10 0.08 56 1013.6
20260508160741 11 245 0.0 4.8 0.05 0.10 0.08 57 1013.7
20260508160241 11 245 0.0 4.8 0.05 0.10 0.08 57 1013.7
20260508155742 11 245 1.6 6.4 0.05 0.10 0.08 57 1014.0
20260508155241 11 245 1.6 6.4 0.05 0.10 0.08 57 1014.0
20260508154741 11 248 1.6 6.4 0.05 0.10 0.08 57 1014.1
20260508154241 11 251 1.6 4.8 0.05 0.10 0.08 57 1014.0
20260508153739 11 251 0.0 4.8 0.03 0.08 0.05 57 1014.0
20260508153240 11 279 0.0 3.2 0.03 0.08 0.05 57 1014.0
20260508152741 11 279 1.6 6.4 0.03 0.08 0.05 57 1013.9
20260508152239 11 284 0.0 6.4 0.03 0.08 0.05 56 1014.1
20260508151735 11 302 0.0 6.4 0.03 0.08 0.05 56 1014.1
20260508151235 11 302 1.6 8.0 0.00 0.05 0.03 55 1014.0
20260508150736 11 308 1.6 12.9 0.00 0.05 0.03 54 1013.9
20260508150236 11 247 3.2 12.9 0.00 0.05 0.03 54 1013.8
20260508145733 11 236 3.2 12.9 0.00 0.05 0.03 53 1013.7
20260508145504 11 250 1.6 12.9 0.00 0.05 0.03 54 1013.9
20260508144733 11 257 1.6 11.3 0.00 0.05 0.03 53 1013.7
20260508144504 11 257 1.6 11.3 0.00 0.05 0.03 53 1013.7
20260508143734 11 232 1.6 12.9 0.00 0.05 0.03 52 1013.6
20260508143230 11 290 1.6 12.9 0.00 0.05 0.03 52 1013.6
20260508142732 11 255 1.6 8.0 0.00 0.05 0.03 52 1013.5
20260508142227 11 248 1.6 8.0 0.00 0.05 0.03 51 1013.6
20260508141725 11 292 1.6 8.0 0.00 0.05 0.03 50 1013.6
20260508141457 11 295 3.2 12.9 0.00 0.05 0.03 50 1013.5
20260508140726 11 279 3.2 12.9 0.00 0.05 0.03 49 1013.5
20260508140456 11 253 1.6 12.9 0.00 0.05 0.03 49 1013.5
20260508135954 11 313 1.6 11.3 0.00 0.05 0.03 50 1013.7
20260508135454 11 232 3.2 11.3 0.00 0.05 0.03 50 1013.6
20260508134724 11 255 3.2 11.3 0.00 0.05 0.03 50 1013.6
20260508134221 11 265 3.2 11.3 0.00 0.05 0.03 50 1013.5
20260508133721 11 196 4.8 12.9 0.00 0.05 0.03 50 1013.6
20260508133452 11 228 4.8 12.9 0.00 0.05 0.03 49 1013.5
20260508132721 11 247 4.8 12.9 0.00 0.05 0.03 50 1013.6
20260508132220 11 244 3.2 12.9 0.00 0.05 0.03 50 1013.8
20260508131719 11 238 4.8 16.1 0.00 0.05 0.03 50 1013.6
20260508131219 11 273 4.8 16.1 0.00 0.05 0.03 49 1013.8
20260508130713 11 251 4.8 14.5 0.00 0.05 0.03 49 1013.6
20260508130206 11 231 4.8 14.5 0.00 0.05 0.03 49 1013.8
20260508125701 11 232 3.2 12.9 0.00 0.05 0.03 49 1013.6
20260508125154 11 215 3.2 11.3 0.00 0.05 0.03 50 1013.5
20260508124649 10 266 3.2 11.3 0.00 0.05 0.03 50 1013.4
20260508124143 10 239 1.6 8.0 0.00 0.05 0.03 50 1013.6
20260508123637 10 251 1.6 8.0 0.00 0.05 0.03 50 1013.5
20260508123130 10 227 3.2 8.0 0.00 0.05 0.03 51 1013.6
20260508122855 10 257 1.6 8.0 0.00 0.05 0.03 51 1013.6
20260508122118 10 207 1.6 8.0 0.00 0.05 0.03 51 1013.5
20260508121613 10 236 1.6 8.0 0.00 0.05 0.03 51 1013.5
20260508121338 10 227 1.6 8.0 0.00 0.05 0.03 51 1013.5
20260508120831 10 241 1.6 6.4 0.00 0.05 0.03 51 1013.5
20260508120055 10 244 1.6 8.0 0.00 0.05 0.03 51 1013.5
20260508115819 10 253 3.2 11.3 0.00 0.05 0.03 51 1013.5
20260508115043 10 248 3.2 11.3 0.00 0.05 0.03 51 1013.4
20260508114808 9 192 3.2 12.9 0.00 0.05 0.03 51 1013.3
20260508114302 9 259 3.2 12.9 0.00 0.05 0.03 51 1013.3
20260508113524 9 254 3.2 11.3 0.00 0.05 0.03 51 1013.1
20260508113250 8 244 1.6 8.0 0.00 0.05 0.03 52 1013.0
20260508112744 8 249 3.2 8.0 0.00 0.05 0.03 52 1013.0
20260508112006 8 240 3.2 8.0 0.00 0.05 0.03 53 1013.0
20260508111500 8 215 1.6 6.4 0.00 0.05 0.03 53 1012.9
20260508110955 8 261 1.6 6.4 0.00 0.05 0.03 53 1013.0
20260508110449 8 244 1.6 6.4 0.00 0.05 0.03 53 1012.7
20260508105943 8 240 1.6 6.4 0.00 0.05 0.03 53 1012.9
20260508105436 7 331 0.0 6.4 0.00 0.05 0.03 53 1012.9
20260508104930 7 263 1.6 6.4 0.00 0.05 0.03 54 1012.9
20260508104424 7 263 1.6 6.4 0.00 0.05 0.03 54 1012.9
20260508103919 7 236 1.6 6.4 0.00 0.05 0.03 54 1012.9
20260508103413 7 243 0.0 6.4 0.00 0.05 0.03 53 1012.9
20260508102907 7 223 0.0 3.2 0.00 0.05 0.03 53 1012.9
20260508102401 7 223 0.0 4.8 0.00 0.05 0.03 53 1012.9
20260508101855 8 223 1.6 9.7 0.00 0.05 0.03 53 1012.7
20260508101349 8 218 3.2 9.7 0.00 0.05 0.03 52 1012.7
20260508100842 7 244 3.2 9.7 0.00 0.05 0.03 53 1012.6
20260508100336 7 215 3.2 8.0 0.00 0.05 0.03 53 1012.6
20260508095831 7 227 1.6 8.0 0.00 0.05 0.03 53 1012.7
20260508095325 7 248 1.6 8.0 0.00 0.05 0.03 53 1012.9
20260508094818 7 234 1.6 8.0 0.00 0.05 0.03 53 1012.9
20260508094312 7 234 1.6 6.4 0.00 0.05 0.03 54 1012.9
20260508093806 7 240 1.6 6.4 0.00 0.05 0.03 53 1012.7
20260508093300 7 246 1.6 6.4 0.00 0.05 0.03 54 1013.0
20260508092754 7 228 1.6 6.4 0.00 0.05 0.03 54 1013.0
20260508092251 7 242 1.6 8.0 0.00 0.05 0.03 53 1013.0
20260508091751 7 247 1.6 8.0 0.00 0.05 0.03 53 1012.9
20260508091251 7 221 1.6 8.0 0.00 0.05 0.03 54 1012.9
20260508090751 7 225 3.2 8.0 0.00 0.05 0.03 54 1012.9
20260508090251 7 235 3.2 6.4 0.00 0.05 0.03 54 1012.9
20260508085751 7 247 1.6 6.4 0.00 0.05 0.03 54 1012.9
20260508085251 7 240 1.6 6.4 0.00 0.05 0.03 54 1012.7
20260508084751 7 222 1.6 6.4 0.00 0.05 0.03 54 1012.9
20260508084250 7 204 3.2 6.4 0.00 0.05 0.03 55 1012.9
20260508083751 7 236 3.2 6.4 0.00 0.05 0.03 55 1012.7
20260508083251 7 258 1.6 6.4 0.00 0.05 0.03 55 1012.7
20260508083022 7 232 0.0 6.4 0.00 0.05 0.03 56 1012.7
20260508082251 7 271 0.0 6.4 0.00 0.05 0.03 56 1012.7
20260508081751 7 211 1.6 6.4 0.00 0.05 0.03 56 1012.7
20260508081251 7 252 1.6 8.0 0.00 0.05 0.03 56 1012.7
20260508080751 7 244 3.2 8.0 0.00 0.05 0.03 56 1012.9
20260508080251 7 142 1.6 8.0 0.00 0.05 0.03 57 1012.9
20260508075745 7 241 1.6 6.4 0.00 0.05 0.03 57 1013.0
20260508075243 7 192 1.6 6.4 0.00 0.05 0.03 57 1013.1
20260508074740 7 215 1.6 6.4 0.00 0.05 0.03 58 1013.1
20260508074512 7 198 1.6 6.4 0.00 0.05 0.03 59 1013.1
20260508073739 7 189 1.6 6.4 0.00 0.05 0.03 60 1013.1
20260508073238 7 255 0.0 3.2 0.00 0.05 0.03 61 1013.2
20260508072737 7 257 0.0 3.2 0.00 0.05 0.03 62 1013.1
20260508072237 7 257 0.0 3.2 0.00 0.05 0.03 62 1013.1
20260508071737 7 257 0.0 0.0 0.00 0.05 0.03 62 1013.2
20260508071235 7 257 0.0 0.0 0.00 0.05 0.03 62 1013.4
20260508070734 7 257 0.0 0.0 0.00 0.05 0.03 62 1013.3
20260508070235 7 257 0.0 0.0 0.00 0.05 0.03 62 1013.4
20260508065734 7 257 0.0 0.0 0.00 0.05 0.03 62 1013.4
20260508065235 7 257 0.0 0.0 0.00 0.05 0.03 62 1013.5
20260508065005 7 257 0.0 0.0 0.00 0.05 0.03 62 1013.5
20260508064505 7 257 0.0 0.0 0.00 0.05 0.03 61 1013.7
20260508063734 7 257 0.0 0.0 0.00 0.05 0.03 61 1013.7
20260508063234 7 257 0.0 0.0 0.00 0.05 0.03 61 1013.7
20260508062734 7 257 0.0 0.0 0.00 0.05 0.03 61 1013.8
20260508062234 8 257 0.0 0.0 0.00 0.05 0.03 60 1013.9
20260508061735 8 257 0.0 0.0 0.00 0.05 0.03 60 1014.0
20260508061235 8 257 0.0 0.0 0.00 0.05 0.03 60 1013.8
20260508060735 8 257 0.0 0.0 0.00 0.05 0.03 60 1013.8
20260508060235 8 257 0.0 0.0 0.00 0.05 0.03 60 1013.7
20260508055735 8 257 0.0 0.0 0.00 0.05 0.03 60 1013.7
20260508055230 8 257 0.0 0.0 0.00 0.05 0.03 59 1013.9
20260508055002 8 257 0.0 0.0 0.00 0.05 0.03 59 1013.8
20260508054231 8 257 0.0 0.0 0.00 0.05 0.03 60 1013.9
20260508054003 8 257 0.0 0.0 0.00 0.05 0.03 60 1013.9
20260508053503 8 257 0.0 0.0 0.00 0.05 0.03 59 1014.0
20260508052731 8 257 0.0 0.0 0.00 0.05 0.03 59 1014.0
20260508052230 8 257 0.0 0.0 0.00 0.05 0.03 59 1014.0
20260508051731 8 257 0.0 0.0 0.00 0.05 0.03 60 1014.0
20260508051502 8 257 0.0 0.0 0.00 0.05 0.03 60 1014.1
20260508050727 8 257 0.0 0.0 0.00 0.05 0.03 59 1014.3
20260508050227 8 257 0.0 0.0 0.03 0.05 0.03 59 1014.4
20260508045727 8 257 0.0 0.0 0.03 0.05 0.03 59 1014.3
20260508045227 8 257 0.0 0.0 0.03 0.05 0.03 59 1014.2
20260508044727 8 257 0.0 0.0 0.03 0.05 0.03 58 1014.3
20260508044229 9 257 0.0 0.0 0.03 0.05 0.03 58 1014.4
20260508043728 9 257 0.0 0.0 0.03 0.05 0.03 58 1014.3
20260508043230 9 257 0.0 1.6 0.03 0.05 0.03 58 1014.3
20260508043001 9 257 0.0 4.8 0.05 0.05 0.03 57 1014.3
20260508042227 9 257 0.0 4.8 0.05 0.05 0.03 57 1014.4
20260508041727 9 258 3.2 11.3 0.05 0.05 0.03 56 1014.6
20260508041227 9 258 3.2 12.9 0.05 0.05 0.03 56 1014.5
20260508040727 10 314 3.2 12.9 0.05 0.05 0.03 56 1014.7
20260508040224 10 271 3.2 9.7 0.03 0.03 0.00 56 1014.9
20260508035724 10 331 3.2 6.4 0.03 0.03 0.03 54 1014.4
20260508035223 10 288 1.6 6.4 0.03 0.03 0.03 52 1013.9
20260508034722 10 213 1.6 6.4 0.03 0.03 0.03 54 1013.7
20260508034222 10 200 1.6 8.0 0.03 0.03 0.03 54 1013.4
20260508033722 10 214 1.6 8.0 0.03 0.03 0.03 54 1013.4
20260508033221 10 167 1.6 8.0 0.03 0.03 0.03 54 1013.4
20260508032718 10 209 1.6 6.4 0.00 0.00 0.00 54 1013.7
20260508032220 10 220 1.6 6.4 0.00 0.00 0.00 54 1013.7
20260508031713 10 186 1.6 6.4 0.00 0.00 0.00 53 1013.5
20260508031207 10 202 1.6 8.0 0.00 0.00 0.00 53 1013.6
20260508030700 10 181 1.6 8.0 0.00 0.00 0.00 53 1013.7
20260508030653 10 194 1.6 8.0 0.00 0.00 0.00 53 1013.9
20260508025649 10 170 1.6 9.7 0.00 0.00 0.00 52 1013.8
20260508025147 10 221 3.2 9.7 0.00 0.00 0.00 52 1014.0
20260508024645 10 197 1.6 8.0 0.00 0.00 0.00 51 1013.9
20260508024147 10 223 0.0 4.8 0.00 0.00 0.00 51 1014.0
20260508023644 10 257 0.0 3.2 0.00 0.00 0.00 51 1014.1
20260508023140 10 257 1.6 6.4 0.00 0.00 0.00 50 1014.1
20260508022640 10 257 0.0 6.4 0.00 0.00 0.00 49 1014.2
20260508022139 10 259 0.0 3.2 0.00 0.00 0.00 47 1014.1
20260508021907 10 259 0.0 1.6 0.00 0.00 0.00 47 1013.9
20260508021134 11 259 0.0 1.6 0.00 0.00 0.00 47 1014.0
20260508020632 11 259 0.0 3.2 0.00 0.00 0.00 48 1014.0
20260508020132 11 259 0.0 3.2 0.00 0.00 0.00 47 1013.9
20260508015903 11 259 0.0 3.2 0.00 0.00 0.00 46 1014.0
20260508015407 11 259 0.0 3.2 0.00 0.00 0.00 45 1014.0
20260508015132 11 259 0.0 3.2 0.00 0.00 0.00 46 1014.0
20260508014132 11 259 0.0 3.2 0.00 0.00 0.00 45 1014.0
20260508013632 11 259 0.0 3.2 0.00 0.00 0.00 44 1013.9
20260508013130 11 260 0.0 1.6 0.00 0.00 0.00 44 1014.0
20260508012858 11 260 0.0 3.2 0.00 0.00 0.00 44 1014.0
20260508012358 11 260 0.0 3.2 0.00 0.00 0.00 44 1013.8
20260508011622 11 260 0.0 3.2 0.00 0.00 0.00 44 1013.7
20260508011116 11 260 0.0 3.2 0.00 0.00 0.00 43 1013.7
20260508010610 11 261 0.0 3.2 0.00 0.00 0.00 44 1013.6
20260508010104 11 269 0.0 3.2 0.00 0.00 0.00 44 1013.7
20260508005558 11 269 0.0 3.2 0.00 0.00 0.00 43 1013.5
20260508005322 11 284 0.0 1.6 0.00 0.00 0.00 44 1013.6
20260508004543 11 284 0.0 1.6 0.00 0.00 0.00 43 1013.9
20260508004037 11 284 0.0 1.6 0.00 0.00 0.00 42 1013.6
20260508003532 11 284 0.0 1.6 0.00 0.00 0.00 42 1013.7
20260508003026 11 284 0.0 1.6 0.00 0.00 0.00 42 1013.6
20260508002520 11 287 0.0 1.6 0.00 0.00 0.00 42 1013.8
20260508002244 11 289 0.0 1.6 0.00 0.00 0.00 42 1013.7
20260508001508 11 289 0.0 3.2 0.00 0.00 0.00 42 1013.7
20260508001002 11 289 0.0 3.2 0.00 0.00 0.00 42 1013.8
20260508000457 11 292 1.6 8.0 0.00 0.00 0.00 42 1013.7
20260507235949 11 292 3.2 8.0 0.00 0.00 0.00 41 1013.9
20260507235444 11 291 3.2 12.9 0.00 0.00 0.00 42 1013.9
20260507234938 11 238 4.8 12.9 0.00 0.00 0.00 42 1014.1
20260507234934 11 258 8.0 19.3 0.00 0.00 0.00 42 1014.2
20260507233926 11 296 6.4 19.3 0.00 0.00 0.00 41 1014.1
20260507233419 12 313 3.2 14.5 0.00 0.00 0.00 40 1014.1
20260507233415 12 260 4.8 17.7 0.00 0.00 0.00 40 1014.2
20260507232407 12 311 8.0 19.3 0.00 0.00 0.00 38 1014.2
20260507232132 12 298 6.4 19.3 0.00 0.00 0.00 36 1014.1
20260507231627 12 295 4.8 20.9 0.00 0.00 0.00 35 1014.2
20260507230849 12 254 3.2 20.9 0.00 0.00 0.00 36 1014.0
20260507230344 12 336 3.2 11.3 0.00 0.00 0.00 34 1013.9
20260507230108 12 317 4.8 11.3 0.00 0.00 0.00 35 1013.9
20260507225331 13 171 3.2 19.3 0.00 0.00 0.00 36 1013.8
20260507224826 13 333 3.2 19.3 0.00 0.00 0.00 31 1014.0
20260507224319 13 278 3.2 11.3 0.00 0.00 0.00 31 1013.6
20260507223813 13 259 3.2 14.5 0.00 0.00 0.00 30 1013.6
20260507223308 13 309 3.2 14.5 0.00 0.00 0.00 31 1013.5
20260507223304 13 325 3.2 11.3 0.00 0.00 0.00 29 1013.5
20260507222753 13 291 4.8 14.5 0.00 0.00 0.00 28 1013.7
20260507222356 13 255 4.8 14.5 0.00 0.00 0.00 28 1013.6
20260507221244 13 277 4.8 12.9 0.00 0.00 0.00 28 1013.5
20260507221008 14 332 4.8 12.9 0.00 0.00 0.00 27 1013.4
20260507220232 14 299 4.8 16.1 0.00 0.00 0.00 28 1013.4
20260507215727 14 284 6.4 16.1 0.00 0.00 0.00 29 1013.5
20260507215723 14 286 4.8 14.5 0.00 0.00 0.00 30 1013.3
20260507214713 14 316 4.8 9.7 0.00 0.00 0.00 30 1013.2
20260507214709 13 286 4.8 16.1 0.00 0.00 0.00 29 1013.3
20260507213932 13 328 4.8 16.1 0.00 0.00 0.00 30 1013.3
20260507213155 13 348 6.4 17.7 0.00 0.00 0.00 30 1013.5
20260507212921 13 272 8.0 17.7 0.00 0.00 0.00 29 1013.5
20260507212143 13 304 8.0 17.7 0.00 0.00 0.00 28 1013.4
20260507211642 13 282 8.0 17.7 0.00 0.00 0.00 29 1013.6
20260507211142 14 304 8.0 19.3 0.00 0.00 0.00 28 1013.5
20260507210642 15 303 9.7 20.9 0.00 0.00 0.00 28 1013.5
20260507210141 15 291 9.7 20.9 0.00 0.00 0.00 29 1013.5
20260507205642 15 349 6.4 17.7 0.00 0.00 0.00 29 1013.6
20260507205146 13 273 9.7 19.3 0.00 0.00 0.00 31 1013.6
20260507205142 14 286 8.0 19.3 0.00 0.00 0.00 28 1013.6